Powrót do katalogu

STARLINK-36588

AktywnyŁącznośćSSO
NORAD 67573·PAYLOAD·🇺🇸 United States

Wystrzelony Jan 25, 2026 z Vandenberg Space Force Base

Loading…

Następne Przeloty (najbliższe 24 godziny)

TLE

ŚwieżeSource: CelesTrak SupGP

Epoka: Sep 14, 2026, 21:31 UTC

1 67573C 26016N   26257.89701389 -.00015865  00000+0 -49252-3 0  2578
2 67573  97.2849 316.5997 0001322  87.1434 109.8415 15.33445353    19

Śledź STARLINK-36588 w czasie rzeczywistym z AllMySat

Download on the App Store